Year,Month,Day,Hour,Minute,Value (Times are PST for temperature in C)
2012,07,28,00,02,13.30
2012,07,28,00,03,13.20
2012,07,28,00,04,13.20
2012,07,28,00,05,13.20
2012,07,28,00,06,13.20
2012,07,28,00,07,13.20
2012,07,28,00,09,13.20
2012,07,28,00,10,13.10
2012,07,28,00,11,13.10
2012,07,28,00,12,13.10
2012,07,28,00,13,13.10
2012,07,28,00,14,13.10
2012,07,28,00,15,13.10
2012,07,28,00,16,13.00
2012,07,28,00,17,13.00
2012,07,28,00,18,12.90
2012,07,28,00,19,12.90
2012,07,28,00,20,12.90
2012,07,28,00,21,12.90
2012,07,28,00,22,12.90
2012,07,28,00,23,12.90
2012,07,28,00,24,12.80
2012,07,28,00,25,12.80
2012,07,28,00,26,12.80
2012,07,28,00,27,12.80
2012,07,28,00,28,12.80
2012,07,28,00,29,12.80
2012,07,28,00,30,12.70
2012,07,28,00,31,12.70
2012,07,28,00,32,12.70
2012,07,28,00,33,12.70
2012,07,28,00,34,12.70
2012,07,28,00,35,12.60
2012,07,28,00,36,12.60
2012,07,28,00,37,12.60
2012,07,28,00,38,12.60
2012,07,28,00,39,12.60
2012,07,28,00,40,12.60
2012,07,28,00,41,12.60
2012,07,28,00,42,12.60
2012,07,28,00,43,12.60
2012,07,28,00,44,12.50
2012,07,28,00,45,12.50
2012,07,28,00,46,12.40
2012,07,28,00,47,12.40
2012,07,28,00,48,12.40
2012,07,28,00,49,12.40
2012,07,28,00,50,12.40
2012,07,28,00,51,12.30
2012,07,28,00,52,12.30
2012,07,28,00,53,12.30
2012,07,28,00,54,12.30
2012,07,28,00,56,12.30
2012,07,28,00,57,12.20
2012,07,28,00,58,12.20
2012,07,28,00,59,12.20
2012,07,28,01,01,12.20
2012,07,28,01,02,12.20
2012,07,28,01,03,12.20
2012,07,28,01,04,12.20
2012,07,28,01,06,12.20
2012,07,28,01,07,12.30
2012,07,28,01,08,12.30
2012,07,28,01,09,12.30
2012,07,28,01,10,12.30
2012,07,28,01,11,12.30
2012,07,28,01,12,12.30
2012,07,28,01,13,12.40
2012,07,28,01,15,12.40
2012,07,28,01,16,12.40
2012,07,28,01,17,12.40
2012,07,28,01,18,12.40
2012,07,28,01,19,12.50
2012,07,28,01,20,12.50
2012,07,28,01,21,12.50
2012,07,28,01,22,12.60
2012,07,28,01,23,12.60
2012,07,28,01,24,12.60
2012,07,28,01,25,12.60
2012,07,28,01,26,12.60
2012,07,28,01,27,12.60
2012,07,28,01,28,12.60
2012,07,28,01,29,12.60
2012,07,28,01,30,12.60
2012,07,28,01,31,12.60
2012,07,28,01,32,12.60
2012,07,28,01,34,12.60
2012,07,28,01,35,12.60
2012,07,28,01,36,12.60
2012,07,28,01,37,12.60
2012,07,28,01,39,12.60
2012,07,28,01,40,12.60
2012,07,28,01,41,12.60
2012,07,28,01,42,12.60
2012,07,28,01,43,12.60
2012,07,28,01,45,12.60
2012,07,28,01,46,12.60
2012,07,28,01,47,12.60
2012,07,28,01,48,12.60
2012,07,28,01,49,12.60
2012,07,28,01,51,12.60
2012,07,28,01,52,12.50
2012,07,28,01,53,12.50
2012,07,28,01,54,12.50
2012,07,28,01,56,12.40
2012,07,28,01,57,12.50
2012,07,28,01,58,12.40
2012,07,28,01,59,12.40
2012,07,28,02,00,12.40
2012,07,28,02,01,12.40
2012,07,28,02,02,12.40
2012,07,28,02,03,12.40
2012,07,28,02,04,12.40
2012,07,28,02,06,12.40
2012,07,28,02,07,12.40
2012,07,28,02,08,12.40
2012,07,28,02,09,12.40
2012,07,28,02,10,12.40
2012,07,28,02,12,12.40
2012,07,28,02,13,12.40
2012,07,28,02,14,12.40
2012,07,28,02,15,12.40
2012,07,28,02,17,12.30
2012,07,28,02,18,12.30
2012,07,28,02,19,12.30
2012,07,28,02,20,12.30
2012,07,28,02,21,12.30
2012,07,28,02,22,12.30
2012,07,28,02,23,12.30
2012,07,28,02,24,12.30
2012,07,28,02,25,12.30
2012,07,28,02,26,12.30
2012,07,28,02,28,12.30
2012,07,28,02,29,12.30
2012,07,28,02,30,12.30
2012,07,28,02,31,12.30
2012,07,28,02,33,12.30
2012,07,28,02,34,12.30
2012,07,28,02,35,12.30
2012,07,28,02,36,12.30
2012,07,28,02,38,12.30
2012,07,28,02,39,12.30
2012,07,28,02,40,12.30
2012,07,28,02,41,12.30
2012,07,28,02,43,12.30
2012,07,28,02,44,12.30
2012,07,28,02,45,12.30
2012,07,28,02,46,12.30
2012,07,28,02,48,12.30
2012,07,28,02,49,12.30
2012,07,28,02,50,12.30
2012,07,28,02,52,12.30
2012,07,28,02,53,12.30
2012,07,28,02,54,12.30
2012,07,28,02,55,12.30
2012,07,28,02,57,12.30
2012,07,28,02,58,12.30
2012,07,28,02,59,12.30
2012,07,28,03,00,12.30
2012,07,28,03,01,12.30
2012,07,28,03,02,12.30
2012,07,28,03,03,12.30
2012,07,28,03,04,12.30
2012,07,28,03,06,12.30
2012,07,28,03,07,12.30
2012,07,28,03,08,12.40
2012,07,28,03,09,12.40
2012,07,28,03,11,12.40
2012,07,28,03,12,12.40
2012,07,28,03,13,12.40
2012,07,28,03,15,12.40
2012,07,28,03,16,12.40
2012,07,28,03,17,12.40
2012,07,28,03,18,12.40
2012,07,28,03,20,12.40
2012,07,28,03,21,12.40
2012,07,28,03,22,12.40
2012,07,28,03,23,12.40
2012,07,28,03,24,12.40
2012,07,28,03,25,12.40
2012,07,28,03,26,12.40
2012,07,28,03,27,12.40
2012,07,28,03,28,12.40
2012,07,28,03,29,12.40
2012,07,28,03,30,12.40
2012,07,28,03,31,12.40
2012,07,28,03,32,12.40
2012,07,28,03,33,12.30
2012,07,28,03,34,12.40
2012,07,28,03,35,12.40
2012,07,28,03,37,12.30
2012,07,28,03,38,12.30
2012,07,28,03,39,12.30
2012,07,28,03,40,12.30
2012,07,28,03,41,12.30
2012,07,28,03,42,12.30
2012,07,28,03,43,12.30
2012,07,28,03,44,12.30
2012,07,28,03,45,12.30
2012,07,28,03,47,12.30
2012,07,28,03,48,12.30
2012,07,28,03,49,12.30
2012,07,28,03,50,12.30
2012,07,28,03,51,12.30
2012,07,28,03,53,12.30
2012,07,28,03,54,12.30
2012,07,28,03,55,12.20
2012,07,28,03,56,12.30
2012,07,28,03,58,12.30
2012,07,28,03,59,12.30
2012,07,28,04,00,12.30
2012,07,28,04,02,12.30
2012,07,28,04,03,12.30
2012,07,28,04,04,12.30
2012,07,28,04,05,12.30
2012,07,28,04,06,12.40
2012,07,28,04,08,12.40
2012,07,28,04,09,12.40
2012,07,28,04,10,12.40
2012,07,28,04,11,12.40
2012,07,28,04,12,12.40
2012,07,28,04,13,12.40
2012,07,28,04,14,12.40
2012,07,28,04,15,12.40
2012,07,28,04,16,12.40
2012,07,28,04,18,12.40
2012,07,28,04,19,12.30
2012,07,28,04,20,12.30
2012,07,28,04,21,12.30
2012,07,28,04,22,12.30
2012,07,28,04,23,12.30
2012,07,28,04,24,12.20
2012,07,28,04,25,12.20
2012,07,28,04,26,12.20
2012,07,28,04,27,12.20
2012,07,28,04,28,12.20
2012,07,28,04,29,12.20
2012,07,28,04,30,12.10
2012,07,28,04,31,12.10
2012,07,28,04,32,12.10
2012,07,28,04,34,12.10
2012,07,28,04,35,12.10
2012,07,28,04,36,12.10
2012,07,28,04,38,12.00
2012,07,28,04,39,12.00
2012,07,28,04,40,12.00
2012,07,28,04,41,12.00
2012,07,28,04,42,11.90
2012,07,28,04,44,11.90
2012,07,28,04,45,11.90
2012,07,28,04,46,11.90
2012,07,28,04,47,11.90
2012,07,28,04,49,11.90
2012,07,28,04,50,11.80
2012,07,28,04,51,11.80
2012,07,28,04,52,11.80
2012,07,28,04,54,11.80
2012,07,28,04,55,11.80
2012,07,28,04,56,11.80
2012,07,28,04,57,11.80
2012,07,28,04,59,11.80
2012,07,28,05,00,11.80
2012,07,28,05,01,11.80
2012,07,28,05,02,11.70
2012,07,28,05,04,11.70
2012,07,28,05,05,11.70
2012,07,28,05,06,11.70
2012,07,28,05,07,11.70
2012,07,28,05,09,11.70
2012,07,28,05,10,11.70
2012,07,28,05,11,11.70
2012,07,28,05,12,11.70
2012,07,28,05,14,11.70
2012,07,28,05,15,11.60
2012,07,28,05,16,11.60
2012,07,28,05,17,11.60
2012,07,28,05,19,11.60
2012,07,28,05,20,11.60
2012,07,28,05,21,11.60
2012,07,28,05,22,11.60
2012,07,28,05,24,11.50
2012,07,28,05,25,11.50
2012,07,28,05,26,11.50
2012,07,28,05,27,11.50
2012,07,28,05,29,11.50
2012,07,28,05,30,11.50
2012,07,28,05,31,11.50
2012,07,28,05,32,11.50
2012,07,28,05,33,11.50
2012,07,28,05,35,11.50
2012,07,28,05,36,11.50
2012,07,28,05,37,11.50
2012,07,28,05,39,11.50
2012,07,28,05,40,11.40
2012,07,28,05,41,11.40
2012,07,28,05,42,11.40
2012,07,28,05,44,11.40
2012,07,28,05,45,11.40
2012,07,28,05,46,11.40
2012,07,28,05,48,11.40
2012,07,28,05,49,11.40
2012,07,28,05,50,11.40
2012,07,28,05,52,11.40
2012,07,28,05,53,11.40
2012,07,28,05,54,11.40
2012,07,28,05,55,11.40
2012,07,28,05,57,11.40
2012,07,28,05,58,11.40
2012,07,28,05,59,11.30
2012,07,28,06,00,11.30
2012,07,28,06,01,11.30
2012,07,28,06,02,11.30
2012,07,28,06,03,11.30
2012,07,28,06,04,11.30
2012,07,28,06,06,11.30
2012,07,28,06,07,11.30
2012,07,28,06,08,11.30
2012,07,28,06,09,11.30
2012,07,28,06,11,11.30
2012,07,28,06,12,11.30
2012,07,28,06,13,11.30
2012,07,28,06,15,11.30
2012,07,28,06,16,11.30
2012,07,28,06,17,11.30
2012,07,28,06,18,11.30
2012,07,28,06,20,11.30
2012,07,28,06,21,11.30
2012,07,28,06,22,11.30
2012,07,28,06,23,11.30
2012,07,28,06,25,11.30
2012,07,28,06,26,11.30
2012,07,28,06,27,11.30
2012,07,28,06,28,11.30
2012,07,28,06,30,11.30
2012,07,28,06,31,11.30
2012,07,28,06,32,11.30
2012,07,28,06,33,11.30
2012,07,28,06,34,11.30
2012,07,28,06,36,11.20
2012,07,28,06,37,11.30
2012,07,28,06,38,11.30
2012,07,28,06,39,11.30
2012,07,28,06,41,11.30
2012,07,28,06,42,11.30
2012,07,28,06,43,11.30
2012,07,28,06,44,11.30
2012,07,28,06,46,11.30
2012,07,28,06,47,11.30
2012,07,28,06,48,11.30
2012,07,28,06,49,11.30
2012,07,28,06,50,11.30
2012,07,28,06,51,11.30
2012,07,28,06,52,11.30
2012,07,28,06,53,11.30
2012,07,28,06,54,11.30
2012,07,28,06,56,11.30
2012,07,28,06,57,11.30
2012,07,28,06,58,11.30
2012,07,28,06,59,11.30
2012,07,28,07,01,11.30
2012,07,28,07,02,11.30
2012,07,28,07,03,11.30
2012,07,28,07,05,11.30
2012,07,28,07,06,11.30
2012,07,28,07,07,11.30
2012,07,28,07,08,11.30
2012,07,28,07,10,11.30
2012,07,28,07,11,11.30
2012,07,28,07,12,11.30
2012,07,28,07,13,11.30
2012,07,28,07,15,11.30
2012,07,28,07,16,11.30
2012,07,28,07,17,11.30
2012,07,28,07,18,11.40
2012,07,28,07,20,11.40
2012,07,28,07,21,11.40
2012,07,28,07,22,11.40
2012,07,28,07,23,11.40
2012,07,28,07,25,11.40
2012,07,28,07,26,11.50
2012,07,28,07,27,11.60
2012,07,28,07,28,11.60
2012,07,28,07,30,11.60
2012,07,28,07,31,11.70
2012,07,28,07,32,11.70
2012,07,28,07,34,11.70
2012,07,28,07,35,11.80
2012,07,28,07,36,11.80
2012,07,28,07,37,11.90
2012,07,28,07,38,11.90
2012,07,28,07,39,11.90
2012,07,28,07,40,12.00
2012,07,28,07,41,12.10
2012,07,28,07,43,12.10
2012,07,28,07,44,12.20
2012,07,28,07,45,12.20
2012,07,28,07,46,12.20
2012,07,28,07,48,12.30
2012,07,28,07,49,12.30
2012,07,28,07,50,12.30
2012,07,28,07,51,12.30
2012,07,28,07,53,12.40
2012,07,28,07,54,12.40
2012,07,28,07,55,12.40
2012,07,28,07,56,12.40
2012,07,28,07,58,12.50
2012,07,28,07,59,12.60
2012,07,28,08,00,12.60
2012,07,28,08,01,12.60
2012,07,28,08,02,12.70
2012,07,28,08,03,12.70
2012,07,28,08,04,12.80
2012,07,28,08,05,12.80
2012,07,28,08,07,12.80
2012,07,28,08,08,12.80
2012,07,28,08,09,12.80
2012,07,28,08,10,12.90
2012,07,28,08,11,12.90
2012,07,28,08,13,13.00
2012,07,28,08,14,13.10
2012,07,28,08,15,13.10
2012,07,28,08,17,13.10
2012,07,28,08,18,13.20
2012,07,28,08,19,13.20
2012,07,28,08,20,13.30
2012,07,28,08,21,13.30
2012,07,28,08,22,13.40
2012,07,28,08,23,13.50
2012,07,28,08,24,13.60
2012,07,28,08,25,13.60
2012,07,28,08,26,13.70
2012,07,28,08,27,13.70
2012,07,28,08,28,13.80
2012,07,28,08,30,13.80
2012,07,28,08,31,13.80
2012,07,28,08,32,13.70
2012,07,28,08,34,13.80
2012,07,28,08,35,13.80
2012,07,28,08,36,13.80
2012,07,28,08,37,13.80
2012,07,28,08,39,13.90
2012,07,28,08,40,14.00
2012,07,28,08,41,14.00
2012,07,28,08,42,14.10
2012,07,28,08,44,14.10
2012,07,28,08,45,14.10
2012,07,28,08,46,14.10
2012,07,28,08,47,14.10
2012,07,28,08,49,14.10
2012,07,28,08,50,14.20
2012,07,28,08,51,14.30
2012,07,28,08,53,14.30
2012,07,28,08,54,14.30
2012,07,28,08,55,14.30
2012,07,28,08,56,14.30
2012,07,28,08,57,14.30
2012,07,28,08,59,14.30
2012,07,28,09,00,14.40
2012,07,28,09,01,14.40
2012,07,28,09,02,14.50
2012,07,28,09,04,14.60
2012,07,28,09,05,14.70
2012,07,28,09,06,14.70
2012,07,28,09,07,14.70
2012,07,28,09,08,14.70
2012,07,28,09,10,14.70
2012,07,28,09,11,14.60
2012,07,28,09,12,14.60
2012,07,28,09,13,14.60
2012,07,28,09,14,14.60
2012,07,28,09,15,14.60
2012,07,28,09,16,14.70
2012,07,28,09,17,14.70
2012,07,28,09,18,14.70
2012,07,28,09,19,14.80
2012,07,28,09,20,14.80
2012,07,28,09,21,14.90
2012,07,28,09,23,15.00
2012,07,28,09,24,15.20
2012,07,28,09,25,15.20
2012,07,28,09,26,15.20
2012,07,28,09,27,15.20
2012,07,28,09,29,15.20
2012,07,28,09,30,15.20
2012,07,28,09,31,15.30
2012,07,28,09,32,15.30
2012,07,28,09,33,15.40
2012,07,28,09,34,15.40
2012,07,28,09,35,15.50
2012,07,28,09,36,15.60
2012,07,28,09,37,15.60
2012,07,28,09,38,15.60
2012,07,28,09,39,15.60
2012,07,28,09,40,15.60
2012,07,28,09,41,15.40
2012,07,28,09,42,15.30
2012,07,28,09,43,15.30
2012,07,28,09,45,15.30
2012,07,28,09,46,15.20
2012,07,28,09,47,15.30
2012,07,28,09,48,15.30
2012,07,28,09,50,15.40
2012,07,28,09,51,15.60
2012,07,28,09,52,15.70
2012,07,28,09,53,15.80
2012,07,28,09,55,15.90
2012,07,28,09,56,16.10
2012,07,28,09,57,16.10
2012,07,28,09,58,16.20
2012,07,28,09,59,16.30
2012,07,28,10,01,16.30
2012,07,28,10,02,16.30
2012,07,28,10,03,16.40
2012,07,28,10,04,16.40
2012,07,28,10,05,16.40
2012,07,28,10,06,16.40
2012,07,28,10,07,16.40
2012,07,28,10,08,16.50
2012,07,28,10,09,16.50
2012,07,28,10,10,16.60
2012,07,28,10,12,16.70
2012,07,28,10,13,16.70
2012,07,28,10,14,16.80
2012,07,28,10,15,16.80
2012,07,28,10,17,16.80
2012,07,28,10,18,16.70
2012,07,28,10,19,16.70
2012,07,28,10,20,16.80
2012,07,28,10,21,16.80
2012,07,28,10,22,16.90
2012,07,28,10,23,16.90
2012,07,28,10,24,16.90
2012,07,28,10,25,16.80
2012,07,28,10,26,16.80
2012,07,28,10,27,16.70
2012,07,28,10,28,16.50
2012,07,28,10,29,16.40
2012,07,28,10,30,16.30
2012,07,28,10,32,16.20
2012,07,28,10,33,16.20
2012,07,28,10,34,16.20
2012,07,28,10,35,16.20
2012,07,28,10,37,16.20
2012,07,28,10,38,16.30
2012,07,28,10,39,16.20
2012,07,28,10,40,16.30
2012,07,28,10,42,16.30
2012,07,28,10,43,16.30
2012,07,28,10,44,16.40
2012,07,28,10,46,16.40
2012,07,28,10,47,16.30
2012,07,28,10,48,16.30
2012,07,28,10,49,16.30
2012,07,28,10,51,16.30
2012,07,28,10,52,16.30
2012,07,28,10,53,16.30
2012,07,28,10,54,16.30
2012,07,28,10,56,16.30
2012,07,28,10,57,16.40
2012,07,28,10,58,16.40
2012,07,28,10,59,16.50
2012,07,28,11,01,16.60
2012,07,28,11,02,16.70
2012,07,28,11,03,16.80
2012,07,28,11,05,16.70
2012,07,28,11,06,16.80
2012,07,28,11,07,16.90
2012,07,28,11,08,17.00
2012,07,28,11,10,17.20
2012,07,28,11,11,17.30
2012,07,28,11,12,17.40
2012,07,28,11,13,17.40
2012,07,28,11,15,17.40
2012,07,28,11,16,17.40
2012,07,28,11,17,17.40
2012,07,28,11,18,17.50
2012,07,28,11,20,17.50
2012,07,28,11,21,17.60
2012,07,28,11,22,17.70
2012,07,28,11,23,17.70
2012,07,28,11,24,17.70
2012,07,28,11,25,17.70
2012,07,28,11,26,17.70
2012,07,28,11,27,17.80
2012,07,28,11,29,17.80
2012,07,28,11,30,17.80
2012,07,28,11,31,17.70
2012,07,28,11,33,17.60
2012,07,28,11,34,17.60
2012,07,28,11,35,17.60
2012,07,28,11,37,17.60
2012,07,28,11,38,17.50
2012,07,28,11,39,17.60
2012,07,28,11,40,17.60
2012,07,28,11,42,17.70
2012,07,28,11,43,17.70
2012,07,28,11,44,17.80
2012,07,28,11,45,18.00
2012,07,28,11,47,18.10
2012,07,28,11,48,18.20
2012,07,28,11,49,18.10
2012,07,28,11,50,18.10
2012,07,28,11,51,18.10
2012,07,28,11,52,18.20
2012,07,28,11,53,18.30
2012,07,28,11,54,18.30
2012,07,28,11,55,18.40
2012,07,28,11,56,18.60
2012,07,28,11,57,18.60
2012,07,28,11,58,18.60
2012,07,28,11,59,18.70
2012,07,28,12,00,18.80
2012,07,28,12,01,18.90
2012,07,28,12,02,19.10
2012,07,28,12,03,19.20
2012,07,28,12,04,19.30
2012,07,28,12,06,19.40
2012,07,28,12,07,19.60
2012,07,28,12,08,19.50
2012,07,28,12,09,19.50
2012,07,28,12,11,19.50
2012,07,28,12,12,19.40
2012,07,28,12,13,19.30
2012,07,28,12,14,19.30
2012,07,28,12,15,19.30
2012,07,28,12,17,19.30
2012,07,28,12,18,19.30
2012,07,28,12,19,19.40
2012,07,28,12,20,19.50
2012,07,28,12,21,19.50
2012,07,28,12,22,19.50
2012,07,28,12,23,19.60
2012,07,28,12,24,19.60
2012,07,28,12,25,19.40
2012,07,28,12,26,19.30
2012,07,28,12,28,19.20
2012,07,28,12,29,19.10
2012,07,28,12,30,19.10
2012,07,28,12,31,19.20
2012,07,28,12,32,19.30
2012,07,28,12,33,19.20
2012,07,28,12,34,19.20
2012,07,28,12,36,19.20
2012,07,28,12,37,19.10
2012,07,28,12,38,19.10
2012,07,28,12,40,18.90
2012,07,28,12,41,18.70
2012,07,28,12,42,18.70
2012,07,28,12,43,18.70
2012,07,28,12,45,18.70
2012,07,28,12,46,18.80
2012,07,28,12,47,18.80
2012,07,28,12,48,18.90
2012,07,28,12,50,18.90
2012,07,28,12,51,19.10
2012,07,28,12,52,19.10
2012,07,28,12,53,19.20
2012,07,28,12,55,19.10
2012,07,28,12,56,19.20
2012,07,28,12,57,19.40
2012,07,28,12,58,19.50
2012,07,28,12,59,19.60
2012,07,28,13,01,19.70
2012,07,28,13,02,19.80
2012,07,28,13,03,19.90
2012,07,28,13,04,19.90
2012,07,28,13,05,20.10
2012,07,28,13,06,20.10
2012,07,28,13,07,20.10
2012,07,28,13,08,20.10
2012,07,28,13,09,19.90
2012,07,28,13,11,19.80
2012,07,28,13,12,19.80
2012,07,28,13,13,19.80
2012,07,28,13,14,19.80
2012,07,28,13,16,19.80
2012,07,28,13,17,19.80
2012,07,28,13,18,19.70
2012,07,28,13,19,19.60
2012,07,28,13,21,19.60
2012,07,28,13,22,19.60
2012,07,28,13,23,19.70
2012,07,28,13,24,19.80
2012,07,28,13,25,19.80
2012,07,28,13,26,19.90
2012,07,28,13,27,20.00
2012,07,28,13,28,20.00
2012,07,28,13,29,19.90
2012,07,28,13,31,19.90
2012,07,28,13,32,19.70
2012,07,28,13,33,19.60
2012,07,28,13,35,19.60
2012,07,28,13,36,19.70
2012,07,28,13,37,19.80
2012,07,28,13,38,19.90
2012,07,28,13,40,20.10
2012,07,28,13,41,20.10
2012,07,28,13,42,20.10
2012,07,28,13,43,20.10
2012,07,28,13,45,20.10
2012,07,28,13,46,20.00
2012,07,28,13,47,20.00
2012,07,28,13,48,19.90
2012,07,28,13,49,19.90
2012,07,28,13,51,19.80
2012,07,28,13,52,19.80
2012,07,28,13,54,19.90
2012,07,28,13,55,19.80
2012,07,28,13,56,19.70
2012,07,28,13,57,19.70
2012,07,28,13,59,19.70
2012,07,28,14,00,19.60
2012,07,28,14,01,19.60
2012,07,28,14,02,19.60
2012,07,28,14,04,19.60
2012,07,28,14,05,19.60
2012,07,28,14,06,19.70
2012,07,28,14,07,19.80
2012,07,28,14,09,19.90
2012,07,28,14,10,19.90
2012,07,28,14,11,20.00
2012,07,28,14,12,20.10
2012,07,28,14,14,20.20
2012,07,28,14,15,20.20
2012,07,28,14,16,20.30
2012,07,28,14,17,20.30
2012,07,28,14,19,20.50
2012,07,28,14,20,20.70
2012,07,28,14,21,20.70
2012,07,28,14,22,20.80
2012,07,28,14,24,20.90
2012,07,28,14,25,21.10
2012,07,28,14,26,21.10
2012,07,28,14,27,21.20
2012,07,28,14,29,21.20
2012,07,28,14,30,21.00
2012,07,28,14,31,20.80
2012,07,28,14,33,20.70
2012,07,28,14,34,20.70
2012,07,28,14,35,20.60
2012,07,28,14,37,20.40
2012,07,28,14,38,20.30
2012,07,28,14,39,20.10
2012,07,28,14,40,19.90
2012,07,28,14,42,19.80
2012,07,28,14,43,19.80
2012,07,28,14,44,19.90
2012,07,28,14,45,20.10
2012,07,28,14,47,20.20
2012,07,28,14,48,20.30
2012,07,28,14,49,20.40
2012,07,28,14,50,20.50
2012,07,28,14,52,20.60
2012,07,28,14,53,20.80
2012,07,28,14,54,20.80
2012,07,28,14,56,20.80
2012,07,28,14,57,20.70
2012,07,28,14,58,20.70
2012,07,28,14,59,20.70
2012,07,28,15,01,20.70
2012,07,28,15,02,20.80
2012,07,28,15,03,20.80
2012,07,28,15,05,20.80
2012,07,28,15,06,20.70
2012,07,28,15,07,20.60
2012,07,28,15,08,20.50
2012,07,28,15,09,20.40
2012,07,28,15,11,20.30
2012,07,28,15,12,20.40
2012,07,28,15,13,20.60
2012,07,28,15,15,20.60
2012,07,28,15,16,20.60
2012,07,28,15,17,20.60
2012,07,28,15,18,20.70
2012,07,28,15,20,20.70
2012,07,28,15,21,20.80
2012,07,28,15,22,20.80
2012,07,28,15,23,20.80
2012,07,28,15,24,20.70
2012,07,28,15,25,20.70
2012,07,28,15,26,20.80
2012,07,28,15,27,20.80
2012,07,28,15,28,20.90
2012,07,28,15,29,21.00
2012,07,28,15,31,21.00
2012,07,28,15,32,21.00
2012,07,28,15,33,20.90
2012,07,28,15,34,20.90
2012,07,28,15,36,20.90
2012,07,28,15,37,20.90
2012,07,28,15,38,20.80
2012,07,28,15,39,20.80
2012,07,28,15,41,20.70
2012,07,28,15,42,20.70
2012,07,28,15,43,20.80
2012,07,28,15,44,20.80
2012,07,28,15,45,20.80
2012,07,28,15,46,20.80
2012,07,28,15,47,20.80
2012,07,28,15,48,20.70
2012,07,28,15,49,20.60
2012,07,28,15,50,20.60
2012,07,28,15,52,20.70
2012,07,28,15,53,20.80
2012,07,28,15,54,20.90
2012,07,28,15,55,21.10
2012,07,28,15,57,21.10
2012,07,28,15,58,20.90
2012,07,28,15,59,20.80
2012,07,28,16,00,20.70
2012,07,28,16,01,20.60
2012,07,28,16,03,20.40
2012,07,28,16,04,20.30
2012,07,28,16,05,20.40
2012,07,28,16,06,20.40
2012,07,28,16,07,20.60
2012,07,28,16,09,20.70
2012,07,28,16,10,20.80
2012,07,28,16,11,20.80
2012,07,28,16,12,20.90
2012,07,28,16,13,21.10
2012,07,28,16,15,21.10
2012,07,28,16,16,21.10
2012,07,28,16,17,21.10
2012,07,28,16,19,21.20
2012,07,28,16,20,21.20
2012,07,28,16,21,21.20
2012,07,28,16,22,21.30
2012,07,28,16,23,21.30
2012,07,28,16,25,21.20
2012,07,28,16,26,21.10
2012,07,28,16,27,20.90
2012,07,28,16,29,20.80
2012,07,28,16,30,20.80
2012,07,28,16,31,20.80
2012,07,28,16,32,20.80
2012,07,28,16,34,20.90
2012,07,28,16,35,20.90
2012,07,28,16,36,21.10
2012,07,28,16,37,21.20
2012,07,28,16,39,21.20
2012,07,28,16,40,21.20
2012,07,28,16,41,21.20
2012,07,28,16,43,21.20
2012,07,28,16,44,21.30
2012,07,28,16,45,21.30
2012,07,28,16,46,21.20
2012,07,28,16,48,21.20
2012,07,28,16,49,21.10
2012,07,28,16,50,21.10
2012,07,28,16,51,21.10
2012,07,28,16,53,21.00
2012,07,28,16,54,21.10
2012,07,28,16,55,21.20
2012,07,28,16,56,21.20
2012,07,28,16,58,21.30
2012,07,28,16,59,21.30
2012,07,28,17,00,21.30
2012,07,28,17,01,21.30
2012,07,28,17,03,21.40
2012,07,28,17,04,21.40
2012,07,28,17,05,21.40
2012,07,28,17,06,21.50
2012,07,28,17,08,21.50
2012,07,28,17,09,21.60
2012,07,28,17,10,21.60
2012,07,28,17,11,21.60
2012,07,28,17,13,21.60
2012,07,28,17,14,21.60
2012,07,28,17,15,21.50
2012,07,28,17,16,21.50
2012,07,28,17,18,21.50
2012,07,28,17,19,21.60
2012,07,28,17,20,21.60
2012,07,28,17,21,21.60
2012,07,28,17,23,21.60
2012,07,28,17,24,21.60
2012,07,28,17,25,21.60
2012,07,28,17,26,21.70
2012,07,28,17,28,21.70
2012,07,28,17,29,21.70
2012,07,28,17,30,21.60
2012,07,28,17,32,21.50
2012,07,28,17,33,21.40
2012,07,28,17,34,21.30
2012,07,28,17,35,21.30
2012,07,28,17,37,21.30
2012,07,28,17,38,21.30
2012,07,28,17,39,21.20
2012,07,28,17,40,21.20
2012,07,28,17,41,21.20
2012,07,28,17,42,21.20
2012,07,28,17,43,21.10
2012,07,28,17,44,21.00
2012,07,28,17,45,20.90
2012,07,28,17,47,20.90
2012,07,28,17,48,20.90
2012,07,28,17,49,20.90
2012,07,28,17,51,21.10
2012,07,28,17,52,21.10
2012,07,28,17,53,21.10
2012,07,28,17,54,21.10
2012,07,28,17,56,21.20
2012,07,28,17,57,21.20
2012,07,28,17,58,21.20
2012,07,28,17,59,21.20
2012,07,28,18,01,21.20
2012,07,28,18,02,21.10
2012,07,28,18,03,21.10
2012,07,28,18,04,21.20
2012,07,28,18,06,21.20
2012,07,28,18,07,21.20
2012,07,28,18,08,21.20
2012,07,28,18,09,21.20
2012,07,28,18,11,21.20
2012,07,28,18,12,21.20
2012,07,28,18,13,21.20
2012,07,28,18,14,21.10
2012,07,28,18,16,21.10
2012,07,28,18,17,21.10
2012,07,28,18,18,21.00
2012,07,28,18,19,20.90
2012,07,28,18,20,20.90
2012,07,28,18,22,20.80
2012,07,28,18,23,20.90
2012,07,28,18,24,20.80
2012,07,28,18,26,20.80
2012,07,28,18,27,20.80
2012,07,28,18,28,20.80
2012,07,28,18,29,20.80
2012,07,28,18,30,20.70
2012,07,28,18,32,20.70
2012,07,28,18,33,20.60
2012,07,28,18,34,20.60
2012,07,28,18,35,20.60
2012,07,28,18,37,20.60
2012,07,28,18,38,20.60
2012,07,28,18,39,20.60
2012,07,28,18,40,20.50
2012,07,28,18,41,20.50
2012,07,28,18,43,20.50
2012,07,28,18,44,20.40
2012,07,28,18,45,20.40
2012,07,28,18,46,20.40
2012,07,28,18,48,20.40
2012,07,28,18,49,20.50
2012,07,28,18,50,20.60
2012,07,28,18,51,20.60
2012,07,28,18,53,20.60
2012,07,28,18,54,20.60
2012,07,28,18,55,20.50
2012,07,28,18,56,20.40
2012,07,28,18,57,20.30
2012,07,28,18,58,20.30
2012,07,28,18,59,20.20
2012,07,28,19,00,20.20
2012,07,28,19,01,20.20
2012,07,28,19,03,20.10
2012,07,28,19,04,20.10
2012,07,28,19,05,20.10
2012,07,28,19,06,20.00
2012,07,28,19,08,19.90
2012,07,28,19,09,19.80
2012,07,28,19,10,19.80
2012,07,28,19,11,19.70
2012,07,28,19,13,19.70
2012,07,28,19,14,19.80
2012,07,28,19,15,19.80
2012,07,28,19,16,19.80
2012,07,28,19,18,19.80
2012,07,28,19,19,19.80
2012,07,28,19,20,19.80
2012,07,28,19,21,19.80
2012,07,28,19,23,19.80
2012,07,28,19,24,19.80
2012,07,28,19,25,19.70
2012,07,28,19,26,19.60
2012,07,28,19,27,19.60
2012,07,28,19,29,19.60
2012,07,28,19,30,19.50
2012,07,28,19,31,19.40
2012,07,28,19,32,19.40
2012,07,28,19,33,19.40
2012,07,28,19,34,19.40
2012,07,28,19,35,19.30
2012,07,28,19,36,19.30
2012,07,28,19,37,19.30
2012,07,28,19,38,19.30
2012,07,28,19,39,19.30
2012,07,28,19,40,19.30
2012,07,28,19,41,19.30
2012,07,28,19,42,19.30
2012,07,28,19,43,19.40
2012,07,28,19,44,19.40
2012,07,28,19,45,19.40
2012,07,28,19,46,19.50
2012,07,28,19,47,19.50
2012,07,28,19,48,19.50
2012,07,28,19,49,19.60
2012,07,28,19,50,19.60
2012,07,28,19,51,19.60
2012,07,28,19,52,19.60
2012,07,28,19,53,19.60
2012,07,28,19,54,19.60
2012,07,28,19,55,19.60
2012,07,28,19,56,19.60
2012,07,28,19,57,19.60
2012,07,28,19,58,19.50
2012,07,28,19,59,19.50
2012,07,28,20,00,19.50
2012,07,28,20,01,19.40
2012,07,28,20,02,19.40
2012,07,28,20,03,19.50
2012,07,28,20,04,19.40
2012,07,28,20,05,19.40
2012,07,28,20,06,19.40
2012,07,28,20,07,19.40
2012,07,28,20,08,19.40
2012,07,28,20,09,19.40
2012,07,28,20,10,19.40
2012,07,28,20,11,19.40
2012,07,28,20,12,19.40
2012,07,28,20,13,19.40
2012,07,28,20,14,19.40
2012,07,28,20,15,19.40
2012,07,28,20,16,19.30
2012,07,28,20,17,19.30
2012,07,28,20,18,19.30
2012,07,28,20,19,19.30
2012,07,28,20,20,19.30
2012,07,28,20,21,19.30
2012,07,28,20,22,19.30
2012,07,28,20,23,19.30
2012,07,28,20,24,19.30
2012,07,28,20,25,19.20
2012,07,28,20,26,19.20
2012,07,28,20,27,19.20
2012,07,28,20,28,19.20
2012,07,28,20,29,19.20
2012,07,28,20,31,19.20